| time (UTC) | temp F | wind direction | speed MPH | gust MPH | rain 1hr in | rain 24hr in | rain mn in | humidity % | barometer mb |
| 20260505020901 | 78 | 229 | 3.0 | 3.0 | 0.00 | 0.00 | 0.00 | 50 | 1011.8 |
| 20260505015901 | 77 | 197 | 0.0 | 4.0 | 0.00 | 0.00 | 0.00 | 50 | 1011.7 |
| 20260505014901 | 77 | 177 | 0.0 | 3.0 | 0.00 | 0.00 | 0.00 | 51 | 1011.6 |
| 20260505013901 | 76 | 332 | 1.0 | 4.0 | 0.00 | 0.00 | 0.00 | 52 | 1011.5 |
| 20260505012901 | 76 | 226 | 1.0 | 6.0 | 0.00 | 0.00 | 0.00 | 52 | 1011.4 |
| 20260505012342 | 75 | 121 | 1.0 | 2.0 | 0.00 | 0.00 | 0.00 | 53 | 1011.4 |
| 20260505010900 | 74 | 271 | 2.0 | 3.0 | 0.00 | 0.00 | 0.00 | 53 | 1011.3 |
| 20260505005900 | 74 | 209 | 0.0 | 3.0 | 0.00 | 0.00 | 0.00 | 54 | 1011.1 |
| 20260505005347 | 73 | 148 | 1.0 | 2.0 | 0.00 | 0.00 | 0.00 | 54 | 1011.0 |
| 20260505003901 | 73 | 193 | 0.0 | 2.0 | 0.00 | 0.00 | 0.00 | 56 | 1010.8 |
| 20260505002900 | 72 | 161 | 0.0 | 1.0 | 0.00 | 0.00 | 0.00 | 57 | 1010.7 |
| 20260505002339 | 72 | 189 | 0.0 | 0.0 | 0.00 | 0.00 | 0.00 | 58 | 1010.7 |
| 20260505001356 | 71 | 175 | 0.0 | 0.0 | 0.00 | 0.00 | 0.00 | 58 | 1010.6 |
| 20260505000344 | 71 | 178 | 0.0 | 0.0 | 0.00 | 0.00 | 0.00 | 60 | 1010.4 |
| 20260504234902 | 70 | 178 | 0.0 | 0.0 | 0.00 | 0.00 | 0.00 | 60 | 1010.3 |
| 20260504234350 | 69 | 188 | 0.0 | 0.0 | 0.00 | 0.00 | 0.00 | 60 | 1009.9 |
| 20260504232901 | 69 | 196 | 0.0 | 0.0 | 0.00 | 0.00 | 0.00 | 60 | 1009.8 |
| 20260504231901 | 69 | 203 | 0.0 | 0.0 | 0.00 | 0.00 | 0.00 | 61 | 1009.6 |
| 20260504230900 | 69 | 209 | 0.0 | 0.0 | 0.00 | 0.00 | 0.00 | 61 | 1009.5 |
| 20260504225900 | 69 | 211 | 0.0 | 0.0 | 0.00 | 0.00 | 0.00 | 61 | 1009.4 |
| 20260504225035 | 69 | 210 | 0.0 | 1.0 | 0.00 | 0.00 | 0.00 | 61 | 1009.2 |
| 20260504224031 | 68 | 209 | 0.0 | 0.0 | 0.00 | 0.00 | 0.00 | 61 | 1009.3 |
| 20260504223027 | 69 | 203 | 0.0 | 1.0 | 0.00 | 0.00 | 0.00 | 61 | 1009.1 |
| 20260504222025 | 68 | 212 | 0.0 | 1.0 | 0.00 | 0.00 | 0.00 | 61 | 1009.0 |
| 20260504221024 | 69 | 207 | 0.0 | 1.0 | 0.00 | 0.00 | 0.00 | 60 | 1009.1 |
| 20260504220022 | 68 | 199 | 0.0 | 0.0 | 0.00 | 0.00 | 0.00 | 61 | 1009.1 |
| 20260504215019 | 69 | 196 | 0.0 | 0.0 | 0.00 | 0.00 | 0.00 | 60 | 1009.1 |
| 20260504214013 | 69 | 187 | 0.0 | 0.0 | 0.00 | 0.00 | 0.00 | 60 | 1009.2 |
| 20260504213009 | 69 | 198 | 0.0 | 0.0 | 0.00 | 0.00 | 0.00 | 60 | 1009.5 |
| 20260504212007 | 69 | 195 | 0.0 | 0.0 | 0.00 | 0.00 | 0.00 | 60 | 1009.5 |
| 20260504211510 | 69 | 195 | 0.0 | 1.0 | 0.00 | 0.00 | 0.00 | 60 | 1009.6 |
| 20260504210503 | 69 | 192 | 0.0 | 1.0 | 0.00 | 0.00 | 0.00 | 60 | 1009.8 |
| 20260504210253 | 69 | 189 | 0.0 | 0.0 | 0.00 | 0.00 | 0.00 | 60 | 1009.8 |
| 20260504203950 | 69 | 173 | 1.0 | 2.0 | 0.00 | 0.00 | 0.00 | 60 | 1010.1 |
| 20260504203453 | 69 | 184 | 0.0 | 3.0 | 0.00 | 0.00 | 0.00 | 60 | 1010.1 |
| 20260504201944 | 69 | 169 | 1.0 | 4.0 | 0.00 | 0.00 | 0.00 | 62 | 1010.3 |
| 20260504200939 | 69 | 129 | 2.0 | 6.0 | 0.00 | 0.00 | 0.00 | 63 | 1010.3 |
| 20260504195937 | 69 | 178 | 0.0 | 3.0 | 0.00 | 0.00 | 0.00 | 63 | 1010.3 |
| 20260504194934 | 69 | 168 | 0.0 | 2.0 | 0.00 | 0.00 | 0.00 | 63 | 1010.3 |
| 20260504193932 | 69 | 169 | 0.0 | 0.0 | 0.00 | 0.00 | 0.00 | 63 | 1010.3 |
| 20260504192926 | 70 | 181 | 0.0 | 0.0 | 0.00 | 0.00 | 0.00 | 62 | 1010.1 |
| 20260504191924 | 69 | 182 | 0.0 | 0.0 | 0.00 | 0.00 | 0.00 | 62 | 1010.0 |
| 20260504190919 | 69 | 180 | 0.0 | 1.0 | 0.00 | 0.00 | 0.00 | 62 | 1009.9 |
| 20260504190414 | 70 | 170 | 0.0 | 2.0 | 0.00 | 0.00 | 0.00 | 61 | 1010.0 |
| 20260504184926 | 70 | 144 | 1.0 | 3.0 | 0.00 | 0.00 | 0.00 | 61 | 1010.4 |
| 20260504184917 | 70 | 177 | 0.0 | 3.0 | 0.00 | 0.00 | 0.00 | 61 | 1010.1 |
| 20260504182912 | 70 | 148 | 0.0 | 3.0 | 0.00 | 0.00 | 0.00 | 61 | 1010.5 |
| 20260504181908 | 70 | 123 | 1.0 | 7.0 | 0.00 | 0.00 | 0.00 | 61 | 1010.9 |
| 20260504180910 | 70 | 165 | 0.0 | 4.0 | 0.00 | 0.00 | 0.00 | 61 | 1010.8 |
| 20260504180410 | 70 | 152 | 0.0 | 2.0 | 0.00 | 0.00 | 0.00 | 61 | 1011.0 |
| 20260504174903 | 70 | 153 | 1.0 | 4.0 | 0.00 | 0.00 | 0.00 | 63 | 1011.5 |
| 20260504173903 | 71 | 98 | 1.0 | 6.0 | 0.00 | 0.00 | 0.00 | 61 | 1011.5 |
| 20260504172903 | 70 | 169 | 0.0 | 10.0 | 0.00 | 0.00 | 0.00 | 61 | 1011.6 |
| 20260504171902 | 71 | 101 | 2.0 | 13.0 | 0.00 | 0.00 | 0.00 | 61 | 1012.1 |
| 20260504171341 | 70 | 105 | 4.0 | 14.0 | 0.00 | 0.00 | 0.00 | 62 | 1012.5 |
| 20260504150902 | 72 | 187 | 0.0 | 0.0 | 0.00 | 0.00 | 0.00 | 61 | 1010.8 |
| 20260504140901 | 73 | 191 | 0.0 | 0.0 | 0.00 | 0.00 | 0.00 | 61 | 1010.4 |
| 20260504080931 | 86 | 220 | 1.0 | 6.0 | 0.00 | 0.00 | 0.00 | 45 | 1006.4 |
| 20260504045857 | 97 | 143 | 2.0 | 6.0 | 0.00 | 0.00 | 0.00 | 34 | 1009.5 |
| 20260504044857 | 95 | 192 | 0.0 | 7.0 | 0.00 | 0.00 | 0.00 | 35 | 1009.6 |
| 20260504043857 | 94 | 116 | 3.0 | 6.0 | 0.00 | 0.00 | 0.00 | 34 | 1009.8 |
| 20260504042856 | 94 | 200 | 0.0 | 6.0 | 0.00 | 0.00 | 0.00 | 36 | 1009.8 |
| 20260504041857 | 91 | 143 | 0.0 | 3.0 | 0.00 | 0.00 | 0.00 | 39 | 1010.0 |
| 20260504040856 | 91 | 196 | 0.0 | 4.0 | 0.00 | 0.00 | 0.00 | 40 | 1010.2 |
| 20260504040827 | 91 | 148 | 1.0 | 3.0 | 0.00 | 0.00 | 0.00 | 40 | 1010.3 |
| 20260504034856 | 90 | 211 | 2.0 | 7.0 | 0.00 | 0.00 | 0.00 | 41 | 1010.3 |
| 20260504034349 | 90 | 165 | 0.0 | 4.0 | 0.00 | 0.00 | 0.00 | 42 | 1010.2 |
| 20260504033841 | 91 | 174 | 1.0 | 7.0 | 0.00 | 0.00 | 0.00 | 42 | 1010.4 |
| 20260504031857 | 91 | 119 | 2.0 | 3.0 | 0.00 | 0.00 | 0.00 | 42 | 1010.3 |
| 20260504030857 | 90 | 151 | 1.0 | 4.0 | 0.00 | 0.00 | 0.00 | 43 | 1010.5 |
| 20260504030823 | 89 | 100 | 1.0 | 6.0 | 0.00 | 0.00 | 0.00 | 43 | 1010.7 |
| 20260504025352 | 87 | 209 | 1.0 | 3.0 | 0.00 | 0.00 | 0.00 | 45 | 1010.6 |
| 20260504024353 | 87 | 173 | 0.0 | 3.0 | 0.00 | 0.00 | 0.00 | 45 | 1010.6 |
| 20260504022856 | 86 | 165 | 1.0 | 3.0 | 0.00 | 0.00 | 0.00 | 46 | 1010.6 |